Date,TemperatureHighF,TemperatureAvgF,TemperatureLowF,DewpointHighF,DewpointAvgF,DewpointLowF,HumidityHigh,HumidityAvg,HumidityLow,PressureMaxIn,PressureMinIn,WindSpeedMaxMPH,WindSpeedAvgMPH,GustSpeedMaxMPH,PrecipitationSumIn
2013-1-1,61.2,41.0,35.1,50.5,37.4,31.8,94,87,60,30.49,30.35,2,0,4,0.00
2013-1-2,65.3,40.1,32.0,43.5,33.8,28.9,93,80,44,30.38,30.22,2,0,3,0.00
2013-1-3,56.3,46.9,36.5,47.1,39.8,30.5,91,77,58,30.45,30.16,9,2,21,0.00
2013-1-4,55.8,48.1,44.8,48.4,45.0,41.4,92,89,72,30.46,30.31,2,0,4,0.00
2013-1-5,64.4,51.2,42.6,52.1,45.6,40.6,93,82,62,30.06,29.88,6,1,12,0.00
2013-1-6,50.7,45.8,39.9,47.1,42.1,38.1,93,87,74,30.09,30.00,4,0,8,0.00
2013-1-7,51.4,49.9,45.5,48.3,46.5,42.2,91,88,81,30.14,29.97,8,2,15,0.00
2013-1-8,54.1,50.4,48.6,49.9,46.7,44.0,92,87,78,30.14,29.87,9,3,21,0.00
2013-1-9,51.1,44.6,37.4,46.5,40.3,34.0,92,85,64,29.89,29.71,9,2,21,0.00
2013-1-10,45.5,40.3,36.0,41.1,36.3,32.8,93,86,74,30.06,29.88,4,1,6,0.00
2013-1-11,48.2,39.4,33.4,42.6,35.3,29.5,91,85,74,30.14,30.01,2,0,4,0.00
2013-1-12,49.3,36.9,31.6,35.8,30.8,26.8,91,79,52,30.21,30.09,2,1,4,0.00
2013-1-13,51.1,34.0,29.7,32.6,26.6,24.1,83,75,46,30.28,30.18,3,1,6,0.00
2013-1-14,54.1,36.1,28.9,34.9,27.6,24.4,84,72,47,30.36,30.24,3,1,5,0.00
2013-1-15,56.7,39.9,31.5,36.5,31.2,25.7,81,72,45,30.40,30.33,3,1,6,0.00
2013-1-16,68.5,44.6,35.6,43.6,33.0,28.3,82,65,36,30.36,30.18,3,2,4,0.00
2013-1-17,57.4,46.7,36.5,45.3,35.3,27.6,90,66,40,30.18,30.04,4,1,6,0.00
2013-1-18,45.7,38.8,32.4,42.6,35.8,28.9,92,89,85,30.10,30.03,2,0,4,0.00
2013-1-19,43.7,37.8,31.8,41.2,35.1,28.9,93,90,87,30.14,30.04,2,0,3,0.00
2013-1-20,59.9,37.5,29.5,46.5,33.2,26.9,93,85,52,30.11,30.01,2,0,5,0.00
2013-1-21,66.6,40.6,30.9,46.2,32.8,27.5,93,76,28,30.03,29.90,3,0,5,0.00
2013-1-22,67.3,46.1,34.7,45.7,35.3,21.7,90,70,21,29.91,29.74,5,1,13,0.00
2013-1-23,49.5,45.1,39.6,47.2,41.8,37.7,94,88,77,30.02,29.69,4,0,10,0.00
2013-1-24,54.7,45.2,34.7,50.1,42.3,32.1,95,89,79,30.03,29.95,5,1,11,0.00
2013-1-25,52.0,48.6,43.9,49.4,46.0,42.0,93,91,83,30.01,29.88,7,2,15,0.00
2013-1-26,52.0,44.3,40.1,45.0,40.6,37.9,94,87,63,30.01,29.86,4,0,9,0.00
2013-1-27,45.5,41.6,37.6,43.3,39.5,35.7,94,92,91,30.10,30.01,6,0,9,0.00
2013-1-28,48.9,45.8,42.6,46.5,43.2,40.6,94,91,85,30.23,30.01,5,0,11,0.00
2013-1-29,52.0,45.3,39.4,46.8,42.5,37.3,92,90,81,30.41,30.24,3,0,9,0.00
2013-1-30,53.1,44.8,37.8,49.1,41.9,35.9,94,90,79,30.42,30.31,2,0,3,0.00
2013-1-31,62.8,46.0,38.3,48.4,41.1,36.7,94,84,52,30.31,30.16,3,1,5,0.00